Location: Canazei
(46.4667°N, 11.7667°E)
Time: 05:00:02
(UTC+00:00)

Meteor 1-27 Rocket - Pass Details

Date: 21 April 2021
Orbit: 830 x 909 km, 81.3° (Epoch: 10 May)

Event Time Altitude Azimuth Distance (km) Brightness Sun altitude
Exits shadow 00:13:47 70° 343° (NNW) 916 3.9 -30.0°
Drops below altitude 10° 00:18:55 10° 9° (N) 2,532 7.1 -29.7°
Sets 00:21:24 0° 11° (N) 3,487 8.1 -29.6°
